星链-34702 (STARLINK-34702)

导读

STARLINK-34702是美国SpaceX公司于2025年7月26日发射的星链低轨卫星,隶属于全球最大卫星互联网星座Starlink。星链项目旨在通过近地轨道组网,为全球偏远、欠发达地区提供低延迟、高速率的宽带互联网接入服务。STARLINK-34702与数千颗同系列卫星协同工作,通过地面网关站与光纤骨干网链接,可实现全球覆盖,支持个人上网、远程办公以及特殊场景通信需求,进一步扩充了星链星座的服务能力。

基本信息
目录编号:
64908
目录名称:
STARLINK-34702
国际标识:
2025-157E
轨道中心:
EARTH
卫星名称:
星链-34702
卫星全名:
星链-34702 (STARLINK-34702)
卫星状态:
在轨 (已飞行322 天)
发射日期:
2025-07-26 UTC
国别 :
美国 (US)
星等 :
--
轨道信息
数据来源 国际轨道数据
星历时间: 2026-06-13T08:02:49+0800
17小时前
查看轨道信息
半长轴: 6848.819km
偏心率: 0.0001436
轨道倾角: 53.161°
近地点辐角 83.937°
升交点赤经 262.447°
平近点角 276.179°
近地点: 469.698km
远地点: 471.666km
周期: 94.012分钟
每日圈数: 15.317196
详细信息
固有亮度:
5
最大亮度:
2.5
卫星平台:
Starlink V1.0
覆盖范围:
全球
运营商:
太空探索技术公司
运营商所在国:
美国
制造商(研发单位):
太空探索技术公司
制造商所在国:
美国
使用方式:
暂无
卫星简介
Starlink 计划是 SpaceX 推出的全球卫星互联网项目,通过发射低轨道卫星,为全球尤其是偏远地区提供高速、低延迟的互联网服务。自 2019 年起,Starlink 已部署数千颗卫星,旨在缩小全球数字鸿沟,推动互联网普及。该项目还为军事、航空等行业提供通信支持,带来广泛经济效益。
2D轨道图
3D轨道图
轨道高度分析图
轨道倾角分析图
轨道综合分析图
查看轨道综合分析图